{"data":{"norad_id":45701,"epoch":"2026-05-25T00:12:51.509664Z","epoch_age_seconds":77697,"freshness":"FRESH","line1":"1 45701U 20035AW  26145.00892951  .00065188  00000+0  20338-2 0  9994","line2":"2 45701  53.1556  41.8995 0003041 113.8019 246.3301 15.32633349330836","mean_motion":15.32633349,"eccentricity":0.0003041,"inclination_deg":53.1556,"raan_deg":41.8995,"arg_perigee_deg":113.8019,"mean_anomaly_deg":246.3301,"bstar":0.0020338,"rev_number":33083,"period_min":93.955935445327,"perigee_km":465.87724464481,"apogee_km":470.04104031867,"semimajor_km":6846.0961424817,"source":"CELESTRAK","updated_at":"2026-05-25T13:38:16.430775Z"}}